sat.trackr.live / text

‹ back to catalog

STARLINK-31964

NORAD 59895 · 2024-100L

PAYLOAD ACTIVE UNKNOWN

§ Identity

Operator
Country
US
Launch date
2024-05-28
Launch site
AFETR
Launch vehicle
Mass (kg)
RCS (m²)

Purposes: comms

External: N2YO · Heavens-Above · Gunter

§ Orbital elements

Epoch: 2026-05-25T00:20:12.734592Z

Period
94.27 min
Inclination
43.0034°
Eccentricity
0.0001504
Mean motion
15.27565335 rev/d
Perigee alt
482.1 km
Apogee alt
484.1 km
Semi-major
6,861.2 km
B*
-1.4104e-4
RAAN
54.0142°
Arg perigee
260.9961°
Mean anomaly
99.0720°
Rev number
11,278

§ Raw data

STARLINK-319641 59895U 24100L   26145.01403628 -.00004139  00000+0 -14104-3 0  99962 59895  43.0034  54.0142 0001504 260.9961  99.0720 15.27565335112789

JSON: /api/v1/satellites/59895 · /tle

For live sub-satellite position, see the globe view (requires WebGL).

§ Visibility from observer

Set your observer location to see the next 7 days of passes ≥ 10°. The values pass through the URL so the page stays shareable.

No JS? Fill the form by hand. The geolocation button needs JavaScript.